Simultaneous Nadir Overpasses (SNOs) Predictions

Prediction of SNOs between AQUA and NOAA-19 Satellite Orbit:

Table of predicted SNOs for the next 14.0 days since TLE Epoch: 7/7/2013
Index Date (AQUA) Time (AQUA) Lat,Lon (AQUA) SZA (AQUA ) Date (NOAA-19) Time (NOAA-19) Lat,Lon (NOAA-19) SZA (NOAA-19 ) Distance(km) Time Diff (sec)
1 07/08/2013 17:58:40 -49.76, 104.53 150.96 07/08/2013 17:58:35 -49.76, 104.54 150.96 0.85 5
2 07/10/2013 22:43:14 -50.76, 33.03 149.90 07/10/2013 22:43:11 -50.76, 33.01 149.90 1.01 3
3 07/13/2013 03:27:24 -50.36, -37.87 149.95 07/13/2013 03:27:22 -50.36, -37.86 149.95 0.99 2
4 07/15/2013 08:11:54 -51.15,-109.29 148.99 07/15/2013 08:11:54 -51.15,-109.29 148.99 0.43 0
5 07/17/2013 12:56:22 -51.84, 179.33 148.07 07/17/2013 12:56:24 -51.84, 179.31 148.07 1.66 2
6 07/19/2013 17:03:45 78.58, 173.17 74.01 07/19/2013 17:02:33 77.93, 176.01 73.81 96.43 72




NCC Satellite Simultaneous Nadir Overpasses (SNOs) Prediction Service
